Location: Knowlton
(51.2333°N, 1.2667°E)
Time: 09:58:47
(UTC+00:00)

Cosmos 1818 - Pass Details

Date: 18 April 2021
Orbit: 772 x 802 km, 65.0° (Epoch: 05 May)

Event Time Altitude Azimuth Distance (km) Brightness Sun altitude
Rises 20:47:13 0° 217° (SW) 3,276 6.7 -15.7°
Reaches altitude 10° 20:49:37 10° 217° (SW) 2,355 6.0 -16.0°
Maximum altitude 20:55:03 85° 130° (SE) 807 3.5 -16.6°
Drops below altitude 10° 21:00:34 10° 42° (NE) 2,384 6.1 -17.2°
Sets 21:03:00 0° 42° (NE) 3,320 6.8 -17.5°
